DW8824 Petit Raffray MU current weather conditions

sailwx.info

Wind from 140 at 1 knots gusting 7

Air temperature 21.1° C
Dewpoint 17.9° C

Last reported at 2019-Jun-25 23:04 UTC.
Time now 2019-Jun-26 00:03 UTC

Location: S 20°02' E 057°37'.
View on Google Maps.

See reports from other nearby stations

  
Tides and Currents Weather Stations Pressure Air Temp Water Temp Dewpoint Dewpoint Depression Visibility Wind Speed Wind Dir Waves Ship Positions
date/time (UTC)wind fromknots sea level pressurealtimeterstation pressurevisibilityair tempwater tempwave heightnotes
2019-Jun-25 23:04 140 1 gusting 7 21.1
2019-Jun-25 22:59 121 2 gusting 7 21.1
2019-Jun-25 22:54 128 4 gusting 8 21.1
2019-Jun-25 22:49 102 2 gusting 10 20.6
2019-Jun-25 22:44 099 4 gusting 10 20.6
2019-Jun-25 22:39 090 5 gusting 11 20.6
2019-Jun-25 22:34 098 2 gusting 8 20.6
2019-Jun-25 22:29 108 0 gusting 8 20.6
2019-Jun-25 22:24 108 0 gusting 6 20.6
2019-Jun-25 22:19 082 1 gusting 6 20.6
2019-Jun-25 22:14 079 0 gusting 5 20.6
2019-Jun-25 22:09 084 1 gusting 7 20.6
2019-Jun-25 22:04 075 3 gusting 8 20.6
2019-Jun-25 21:59 078 3 gusting 8 20.6
2019-Jun-25 21:54 091 2 gusting 8 20.6
2019-Jun-25 21:49 082 1 gusting 8 20.6
2019-Jun-25 21:44 070 4 gusting 13 20.6
2019-Jun-25 21:39 077 6 gusting 14 20.6
2019-Jun-25 21:34 075 5 gusting 10 21.1
2019-Jun-25 21:29 064 8 gusting 18 21.7
2019-Jun-25 21:24 079 5 gusting 10 21.7
2019-Jun-25 21:19 082 5 gusting 10 21.7
2019-Jun-25 21:09 091 1 gusting 8 21.7
2019-Jun-25 21:04 096 0 gusting 5 21.7
2019-Jun-25 20:59 078 0 gusting 6 21.7
2019-Jun-25 20:54 064 2 gusting 6 21.7
2019-Jun-25 20:49 067 1 gusting 10 21.7
2019-Jun-25 20:44 081 4 gusting 7 21.7
2019-Jun-25 20:39 088 2 gusting 6 21.7
2019-Jun-25 20:34 084 0 gusting 7 21.7
2019-Jun-25 20:29 081 2 gusting 7 21.7
2019-Jun-25 20:24 049 4 gusting 8 21.7
2019-Jun-25 20:19 054 4 gusting 10 22.2
2019-Jun-25 20:14 055 5 gusting 13 22.8
2019-Jun-25 20:09 058 7 gusting 17 23.3
2019-Jun-25 20:04 055 6 gusting 12 23.3
2019-Jun-25 19:59 068 6 gusting 10 23.3
2019-Jun-25 19:54 064 3 gusting 7 23.3
2019-Jun-25 19:49 075 6 gusting 10 23.3
2019-Jun-25 19:44 073 5 gusting 10 23.3
2019-Jun-25 19:39 047 5 gusting 11 23.3
2019-Jun-25 19:34 075 4 gusting 10 23.3
2019-Jun-25 19:29 072 5 gusting 10 23.3
2019-Jun-25 19:24 071 4 gusting 7 23.3
2019-Jun-25 19:19 061 2 gusting 7 23.3
2019-Jun-25 19:14 068 3 gusting 8 23.3
2019-Jun-25 19:09 079 4 gusting 8 23.3
2019-Jun-25 19:04 077 4 gusting 12 23.3
2019-Jun-25 18:59 082 2 gusting 11 23.9
2019-Jun-25 18:54 080 6 gusting 13 23.3
2019-Jun-25 18:49 075 3 gusting 10 23.3
2019-Jun-25 18:44 067 6 gusting 10 23.3
2019-Jun-25 18:39 075 2 gusting 10 23.3
2019-Jun-25 18:34 074 4 gusting 11 23.3
2019-Jun-25 18:29 081 5 gusting 12 23.3
2019-Jun-25 18:24 087 5 gusting 11 23.3
2019-Jun-25 18:19 090 4 gusting 8 23.3
2019-Jun-25 18:14 080 4 gusting 10 23.3
2019-Jun-25 18:09 064 6 gusting 12 23.3
2019-Jun-25 18:04 088 4 gusting 10 23.3
2019-Jun-25 17:59 088 4 gusting 11 23.3
2019-Jun-25 17:54 092 6 gusting 12 23.3
2019-Jun-25 17:49 088 5 gusting 13 23.3
2019-Jun-25 17:44 079 2 gusting 10 23.3
2019-Jun-25 17:39 093 3 gusting 10 23.3
2019-Jun-25 17:34 087 4 gusting 10 23.3
2019-Jun-25 17:29 084 4 gusting 8 23.3
2019-Jun-25 17:24 077 4 gusting 10 23.3
2019-Jun-25 17:19 072 6 gusting 13 23.3
2019-Jun-25 17:14 096 4 gusting 13 22.8
2019-Jun-25 17:09 094 3 gusting 10 22.8
2019-Jun-25 17:04 119 2 gusting 10 22.8
2019-Jun-25 16:59 097 6 gusting 10 22.8
2019-Jun-25 16:54 094 5 gusting 10 22.8
2019-Jun-25 16:49 083 5 gusting 8 22.8
2019-Jun-25 16:44 073 4 gusting 10 22.8
2019-Jun-25 16:39 081 5 gusting 10 22.8
2019-Jun-25 16:34 095 4 gusting 8 22.2
2019-Jun-25 16:29 128 4 gusting 8 22.2
2019-Jun-25 16:24 096 2 gusting 11 22.2
2019-Jun-25 16:19 091 3 gusting 10 22.2
2019-Jun-25 16:14 089 6 gusting 13 22.2
2019-Jun-25 16:09 078 6 gusting 12 22.2
2019-Jun-25 16:04 063 6 gusting 13 22.2
2019-Jun-25 15:59 062 9 gusting 17 22.2
2019-Jun-25 15:54 102 4 gusting 7 22.2
2019-Jun-25 15:49 104 4 gusting 7 22.2
2019-Jun-25 15:44 116 1 gusting 6 22.2
2019-Jun-25 15:39 100 2 gusting 7 22.2
2019-Jun-25 15:34 104 4 gusting 8 22.2
2019-Jun-25 15:29 110 2 gusting 10 22.2
2019-Jun-25 15:24 103 5 gusting 13 22.2
2019-Jun-25 15:19 103 6 gusting 13 22.8
2019-Jun-25 15:14 117 4 gusting 6 22.8
2019-Jun-25 15:09 108 4 gusting 10 22.8
2019-Jun-25 09:04 058 4 gusting 10 23.9
2019-Jun-25 08:59 076 5 gusting 10 23.3
2019-Jun-25 08:54 060 11 gusting 14 23.9
2019-Jun-25 08:49 056 6 gusting 13 23.9
2019-Jun-25 08:44 067 6 gusting 14 23.9
2019-Jun-25 08:39 063 9 gusting 17 24.4
2019-Jun-25 08:34 055 6 gusting 17 25.0
2019-Jun-25 08:29 079 6 gusting 17 25.0
2019-Jun-25 08:24 074 8 gusting 14 25.6
2019-Jun-25 08:19 062 7 gusting 12 25.6
2019-Jun-25 08:14 098 6 gusting 13 25.6
2019-Jun-25 08:09 090 4 gusting 14 25.0
2019-Jun-25 08:04 081 8 gusting 13 24.4
2019-Jun-25 07:59 092 1 gusting 10 24.4
2019-Jun-25 07:54 118 3 gusting 12 23.9
2019-Jun-25 07:49 095 4 gusting 10 23.9
2019-Jun-25 07:44 105 3 gusting 10 23.9
2019-Jun-25 07:39 094 4 gusting 10 23.9
2019-Jun-25 07:34 122 6 gusting 11 23.9
2019-Jun-25 07:29 121 4 gusting 12 24.4
2019-Jun-25 07:24 103 4 gusting 10 24.4
2019-Jun-25 07:19 095 4 gusting 8 24.4
2019-Jun-25 07:14 082 5 gusting 13 24.4
2019-Jun-25 07:09 083 5 gusting 11 25.0
2019-Jun-25 07:04 095 7 gusting 13 25.0
2019-Jun-25 06:59 068 6 gusting 10 25.0
2019-Jun-25 06:54 063 4 gusting 13 25.0
2019-Jun-25 06:49 075 6 gusting 10 24.4
2019-Jun-25 06:44 088 5 gusting 11 25.0
2019-Jun-25 06:39 106 5 gusting 14 25.0
2019-Jun-25 06:34 077 6 gusting 13 25.0
2019-Jun-25 06:29 076 4 gusting 12 25.6
2019-Jun-25 06:24 093 5 gusting 12 25.0
2019-Jun-25 06:19 104 7 gusting 13 25.0
2019-Jun-25 06:14 095 5 gusting 12 24.4
2019-Jun-25 06:09 091 5 gusting 11 24.4
2019-Jun-25 06:04 075 6 gusting 12 25.0
2019-Jun-25 05:59 067 5 gusting 13 24.4
2019-Jun-25 05:54 093 4 gusting 10 24.4
2019-Jun-25 05:49 084 7 gusting 17 24.4
2019-Jun-25 05:44 087 8 gusting 13 24.4
2019-Jun-25 05:39 069 6 gusting 11 24.4
2019-Jun-25 05:34 090 5 gusting 15 24.4
2019-Jun-25 05:29 080 3 gusting 12 24.4
2019-Jun-25 05:24 073 3 gusting 10 24.4
2019-Jun-25 05:19 082 7 gusting 15 24.4
2019-Jun-24 09:09 078 4 gusting 17 22.2
2019-Jun-24 09:04 106 5 gusting 14 22.2
2019-Jun-24 08:59 086 6 gusting 13 22.2
2019-Jun-24 08:54 117 6 gusting 15 22.8
2019-Jun-24 08:49 112 2 gusting 11 22.8
2019-Jun-24 08:44 125 3 gusting 10 22.8
2019-Jun-24 08:39 128 6 gusting 12 22.8
2019-Jun-24 08:34 118 6 gusting 11 22.2
2019-Jun-24 08:29 123 5 gusting 11 22.2
2019-Jun-24 08:24 128 1 gusting 10 22.8
2019-Jun-24 08:19 125 7 gusting 17 23.3
2019-Jun-24 08:14 102 10 gusting 21 23.9
2019-Jun-24 08:09 120 6 gusting 17 23.9
2019-Jun-24 08:04 115 7 gusting 15 23.3
2019-Jun-24 07:59 126 5 gusting 15 23.9
2019-Jun-24 07:54 123 6 gusting 13 23.9
2019-Jun-24 07:49 094 5 gusting 17 24.4
2019-Jun-24 07:44 087 3 gusting 17 24.4
2019-Jun-24 07:39 114 6 gusting 14 24.4
2019-Jun-24 07:34 103 6 gusting 14 24.4
2019-Jun-24 07:29 111 6 gusting 13 24.4
2019-Jun-24 07:24 118 6 gusting 19 24.4
2019-Jun-24 07:19 091 7 gusting 13 24.4
2019-Jun-24 07:14 100 6 gusting 18 23.9
2019-Jun-24 07:09 115 8 gusting 18 23.9
2019-Jun-24 07:04 103 5 gusting 15 24.4
2019-Jun-24 06:59 092 8 gusting 17 24.4
2019-Jun-24 06:54 091 8 gusting 17 24.4
2019-Jun-24 06:49 108 4 gusting 12 23.9
2019-Jun-24 06:44 117 7 gusting 20 24.4
2019-Jun-24 06:39 129 6 gusting 17 24.4
2019-Jun-24 06:34 074 9 gusting 17 24.4
2019-Jun-24 06:29 095 7 gusting 14 24.4
2019-Jun-24 06:24 082 7 gusting 13 24.4
2019-Jun-24 06:19 092 8 gusting 17 24.4
2019-Jun-24 06:14 093 8 gusting 19 24.4
2019-Jun-24 06:09 091 5 gusting 17 24.4
2019-Jun-24 06:04 092 6 gusting 13 24.4
2019-Jun-24 05:59 125 6 gusting 14 23.9
2019-Jun-24 05:54 109 6 gusting 12 23.9
2019-Jun-24 05:49 092 6 gusting 13 24.4
2019-Jun-24 05:44 121 5 gusting 13 24.4
2019-Jun-24 05:39 105 8 gusting 15 23.9
2019-Jun-24 05:34 105 6 gusting 13 23.9
2019-Jun-24 05:29 108 6 gusting 13 23.9
2019-Jun-24 05:24 106 6 gusting 14 23.9
2019-Jun-24 05:19 092 6 gusting 13 23.9
2019-Jun-24 05:14 085 5 gusting 11 23.9
2019-Jun-24 05:09 104 5 gusting 12 23.3
2019-Jun-24 05:04 112 4 gusting 13 23.3
2019-Jun-24 04:59 114 6 gusting 13 23.3
2019-Jun-24 04:54 110 6 gusting 13 23.3
2019-Jun-24 04:49 097 5 gusting 13 23.3
2019-Jun-24 04:44 097 6 gusting 15 23.3
2019-Jun-24 04:39 111 6 gusting 13 23.3
2019-Jun-24 04:34 111 6 gusting 13 22.8
2019-Jun-24 04:29 114 6 gusting 12 22.8
2019-Jun-24 04:24 113 4 gusting 12 22.2
2019-Jun-24 04:19 090 2 gusting 13 22.2
2019-Jun-24 04:14 104 4 gusting 10 22.2
2019-Jun-24 04:09 087 2 gusting 10 22.2
2019-Jun-24 04:04 097 3 gusting 10 22.2
2019-Jun-24 03:59 093 5 gusting 12 21.7
2019-Jun-24 03:54 085 4 gusting 10 21.7
2019-Jun-24 03:49 097 4 gusting 8 21.7
2019-Jun-24 03:44 100 4 gusting 10 21.7
2019-Jun-24 03:39 111 4 gusting 10 21.1
2019-Jun-24 03:34 107 3 gusting 12 21.1
2019-Jun-24 03:29 102 2 gusting 8 20.6
2019-Jun-24 03:24 137 1 gusting 6 20.6
2019-Jun-24 03:19 148 1 gusting 7 20.6
2019-Jun-24 03:14 120 4 gusting 7 20.6
2019-Jun-24 03:09 133 0 gusting 6 20.0
2019-Jun-24 03:04 153 3 gusting 7 20.0
2019-Jun-24 02:59 167 2 gusting 6 20.0
2019-Jun-24 02:54 151 0 gusting 5 20.0
2019-Jun-24 02:49 167 4 gusting 10 20.0
2019-Jun-24 02:44 156 4 gusting 10 20.0
2019-Jun-24 02:39 149 0 gusting 6 20.0
2019-Jun-24 02:34 132 4 gusting 7 20.0
2019-Jun-24 02:29 136 2 gusting 10 20.0
2019-Jun-24 02:24 161 3 gusting 8 20.0
2019-Jun-24 02:19 152 2 gusting 11 20.0
2019-Jun-24 02:14 153 5 gusting 10 20.0
2019-Jun-24 02:09 144 1 gusting 6 20.6
2019-Jun-24 02:04 167 4 gusting 10 20.6
2019-Jun-24 01:59 178 4 gusting 10 20.6
2019-Jun-24 01:54 156 2 gusting 10 20.6
2019-Jun-24 01:49 154 1 gusting 6 20.6
2019-Jun-24 01:44 135 2 gusting 8 20.6
2019-Jun-24 01:39 151 4 gusting 10 20.6
2019-Jun-24 01:34 157 3 gusting 6 20.6
2019-Jun-24 01:29 147 2 gusting 7 20.6
2019-Jun-24 01:24 151 1 gusting 7 20.6
2019-Jun-24 01:19 153 0 gusting 10 20.6
2019-Jun-24 01:14 146 20.6
2019-Jun-24 01:09 144 0 gusting 2 20.6
2019-Jun-24 01:04 148 20.6
2019-Jun-24 00:59 139 0 gusting 7 20.6
2019-Jun-24 00:54 152 2 gusting 6 21.1
2019-Jun-24 00:49 157 1 gusting 8 21.1
2019-Jun-24 00:44 145 2 gusting 7 21.1
2019-Jun-24 00:39 130 2 gusting 7 21.1
2019-Jun-24 00:34 145 5 gusting 10 21.1
2019-Jun-24 00:29 133 2 gusting 7 21.7
2019-Jun-24 00:24 127 4 gusting 10 21.7
2019-Jun-24 00:19 120 5 gusting 12 21.7
2019-Jun-24 00:14 121 2 gusting 8 21.7
2019-Jun-24 00:09 122 5 gusting 10 21.7
2019-Jun-24 00:04 110 3 gusting 8 21.7